Total_Precipitation_Accumulation
2.30 2.33 2.07 1.99 1.89 2.03 2.27 2.28 2.13 2.25 2.37 2.35 2.15 2.02 1.87 1.58 1.46 1.36 1.45 1.80 1.80 1.82 2.05 2.02 1.93 1.83 1.65 1.44 1.33 1.24 1.19 1.09 0.95 0.76 0.69 0.59 0.48 0.39 0.29 0.22 0.18 0.17 0.16
2.19 2.05 2.03 2.06 1.96 2.06 2.09 2.11 2.17 2.35 2.46 2.55 2.25 2.05 1.93 1.77 1.65 1.57 1.53 1.81 1.86 1.75 1.89 2.15 2.24 2.18 2.13 1.90 1.71 1.61 1.49 1.37 1.14 0.85 0.75 0.69 0.58 0.50 0.43 0.39 0.34 0.27 0.20
2.13 2.11 2.04 1.88 1.90 1.97 2.06 2.11 2.17 2.28 2.20 2.26 2.23 2.12 2.03 1.88 1.80 1.69 1.63 1.63 1.51 1.65 1.82 2.01 2.18 2.22 2.32 2.24 2.16 2.07 1.87 1.59 1.30 0.96 0.75 0.70 0.63 0.53 0.48 0.47 0.45 0.38 0.29
1.88 1.94 1.79 1.75 1.83 1.68 1.71 1.81 1.76 1.83 1.93 2.07 2.10 1.96 1.91 1.89 1.75 1.72 1.64 1.55 1.58 1.37 1.67 1.97 2.08 2.00 2.17 2.39 2.59 2.63 2.23 1.72 1.36 1.09 0.87 0.74 0.69 0.57 0.47 0.42 0.41 0.42 0.34
1.43 1.45 1.43 1.51 1.49 1.44 1.43 1.31 1.55 1.64 1.79 1.89 1.83 1.76 1.65 1.77 1.73 1.60 1.56 1.36 1.51 1.45 1.44 1.58 1.82 1.77 2.03 2.46 2.83 2.94 2.69 2.15 1.64 1.39 1.22 1.07 0.98 0.80 0.58 0.49 0.43 0.39 0.34
1.35 1.26 1.21 1.27 1.20 1.25 1.34 1.38 1.51 1.49 1.47 1.55 1.45 1.50 1.48 1.31 1.39 1.41 1.32 1.31 1.29 1.08 1.14 1.34 1.65 1.44 1.78 2.19 2.54 2.74 2.87 2.72 2.25 1.82 1.62 1.56 1.50 1.20 0.80 0.62 0.54 0.46 0.38
1.27 1.28 1.12 1.16 1.06 1.09 1.12 1.11 1.20 1.23 1.21 1.27 1.46 1.46 1.24 1.05 1.05 1.03 1.07 1.21 1.14 1.14 1.23 1.39 1.52 1.52 1.42 1.55 1.74 2.14 2.67 2.90 2.75 2.31 1.97 1.75 1.72 1.51 1.05 0.82 0.66 0.60 0.54
1.04 0.99 1.05 1.02 0.98 1.09 1.11 1.08 1.09 1.09 1.06 1.10 1.26 1.44 1.27 1.13 0.93 0.73 0.87 0.87 0.92 1.15 1.24 1.22 1.29 1.52 1.41 1.57 1.29 1.46 2.11 2.60 2.95 2.83 2.45 2.03 1.77 1.52 1.22 1.03 0.83 0.69 0.64
0.91 0.89 0.87 0.93 1.00 0.96 1.05 1.08 0.97 1.01 1.05 1.01 1.01 1.26 1.31 1.22 1.01 0.74 0.68 0.76 0.87 1.00 1.06 1.21 1.17 1.18 1.21 1.49 1.67 1.50 1.56 1.82 2.52 3.02 2.97 2.42 1.83 1.43 1.30 1.28 1.18 0.99 0.82
0.92 0.86 0.80 0.80 0.86 0.83 1.01 0.89 0.92 0.99 1.03 0.92 0.86 0.87 0.99 1.06 1.13 0.98 0.78 0.71 0.80 0.90 0.93 0.97 1.07 1.23 1.35 1.46 1.62 1.53 1.28 1.36 1.86 2.49 2.86 2.73 2.24 1.71 1.41 1.42 1.61 1.57 1.26
1.06 0.92 0.90 0.84 0.84 0.80 0.87 0.85 1.04 1.02 0.96 0.89 0.87 0.87 0.91 0.88 0.86 0.94 0.87 0.77 0.75 0.65 0.71 0.84 1.05 1.19 1.25 1.41 1.65 1.48 1.22 1.10 1.26 1.69 2.11 2.33 2.34 2.03 1.70 1.60 1.89 2.12 1.92
1.11 1.01 0.98 0.97 0.89 0.84 0.83 0.81 0.94 0.99 1.03 1.03 0.97 0.88 0.93 0.89 0.86 0.93 0.81 0.69 0.68 0.51 0.53 0.66 0.81 0.92 1.05 1.26 1.36 1.34 1.30 1.26 1.21 1.28 1.41 1.65 1.89 1.93 1.85 1.89 2.13 2.35 2.43
0.93 0.92 0.90 0.90 0.80 0.81 0.88 0.95 0.94 0.95 0.99 1.03 0.98 0.91 0.88 0.79 0.85 0.88 0.80 0.67 0.68 0.57 0.69 0.67 0.72 0.93 1.03 1.30 1.38 1.39 1.30 1.30 1.14 1.06 1.08 1.15 1.27 1.47 1.67 1.80 2.02 2.24 2.47
0.90 0.91 0.91 0.84 0.81 0.84 0.85 1.00 0.88 0.83 0.88 0.90 0.81 0.99 0.97 0.77 0.85 0.87 0.91 1.00 0.91 0.84 0.88 0.78 0.84 1.10 1.37 1.45 1.53 1.46 1.21 1.20 1.06 0.95 0.86 0.87 0.94 1.06 1.17 1.30 1.45 1.57 1.72
0.99 1.05 1.00 0.90 0.90 0.96 0.99 1.04 0.91 0.87 0.94 0.88 0.89 1.05 1.03 0.93 0.94 0.91 1.00 1.15 1.24 1.09 1.01 1.04 1.09 1.15 1.34 1.40 1.48 1.37 1.21 1.21 1.05 0.89 0.82 0.79 0.81 0.86 0.91 0.92 0.96 1.03 1.10
0.99 1.08 1.05 0.95 0.93 0.96 1.00 1.05 0.95 0.97 0.99 0.97 1.02 1.12 1.13 1.07 1.08 1.04 1.05 1.15 1.33 1.32 1.19 1.07 1.15 1.16 1.20 1.10 1.20 1.13 1.12 1.17 1.02 0.93 0.89 0.85 0.81 0.80 0.79 0.82 0.83 0.82 0.83
1.05 1.03 1.03 1.01 0.97 1.00 1.06 1.10 1.05 1.04 0.99 1.02 1.02 1.05 1.06 1.15 1.22 1.22 1.28 1.30 1.34 1.49 1.40 1.15 1.21 1.32 1.31 1.14 1.07 1.05 1.03 1.01 0.97 1.00 0.94 0.90 0.85 0.78 0.72 0.68 0.72 0.74 0.74
1.03 1.05 1.06 1.00 0.90 0.95 1.08 1.12 1.06 1.08 1.07 1.02 1.05 1.15 1.11 1.14 1.25 1.31 1.45 1.43 1.48 1.69 1.68 1.47 1.43 1.48 1.40 1.30 1.20 1.11 0.98 0.92 0.92 1.01 0.95 0.88 0.80 0.74 0.71 0.69 0.66 0.66 0.66
1.13 1.09 1.06 0.98 0.93 0.93 0.98 1.03 1.09 1.17 1.19 1.20 1.23 1.27 1.27 1.38 1.37 1.41 1.48 1.47 1.53 1.73 1.87 1.74 1.66 1.74 1.72 1.50 1.37 1.20 1.07 1.07 0.93 0.93 0.95 0.90 0.85 0.80 0.74 0.74 0.74 0.70 0.65
1.18 1.21 1.21 1.22 1.21 1.13 1.10 1.11 1.16 1.19 1.22 1.26 1.35 1.37 1.38 1.46 1.52 1.59 1.61 1.71 1.82 1.98 2.11 2.03 1.96 2.03 2.04 1.89 1.70 1.40 1.30 1.23 1.11 0.97 1.01 0.98 0.94 0.87 0.80 0.74 0.71 0.71 0.70
1.40 1.54 1.53 1.47 1.44 1.37 1.23 1.27 1.28 1.24 1.33 1.27 1.32 1.36 1.33 1.38 1.45 1.57 1.59 1.75 1.95 2.14 2.30 2.33 2.32 2.46 2.39 2.21 1.94 1.60 1.51 1.42 1.29 1.12 1.02 0.92 0.87 0.81 0.78 0.77 0.75 0.75 0.73
1.62 1.68 1.62 1.57 1.55 1.34 1.41 1.42 1.37 1.43 1.47 1.44 1.44 1.46 1.39 1.34 1.33 1.38 1.46 1.58 1.73 1.92 2.17 2.37 2.46 2.52 2.54 2.39 2.17 1.91 1.58 1.34 1.23 1.12 1.11 1.03 0.91 0.86 0.77 0.72 0.80 0.78 0.73
1.53 1.58 1.56 1.50 1.42 1.39 1.35 1.24 1.24 1.26 1.37 1.42 1.43 1.44 1.29 1.16 1.20 1.15 1.23 1.28 1.31 1.41 1.56 1.80 2.02 2.09 2.24 2.31 2.19 1.89 1.61 1.38 1.21 1.16 1.17 1.07 1.00 0.94 0.84 0.81 0.89 0.78 0.72
1.71 1.69 1.61 1.55 1.54 1.45 1.30 1.15 1.15 1.11 1.19 1.23 1.25 1.28 1.27 1.16 1.12 1.15 1.15 1.11 1.03 1.04 1.11 1.16 1.31 1.55 1.76 2.00 2.06 1.96 1.87 1.61 1.33 1.12 1.07 1.02 0.92 0.87 0.83 0.81 0.87 0.80 0.74
1.79 1.77 1.75 1.76 1.77 1.73 1.58 1.31 1.22 1.19 1.28 1.28 1.27 1.27 1.28 1.18 1.18 1.07 1.05 1.04 0.98 0.94 0.93 0.98 1.06 1.24 1.48 1.66 1.86 1.87 1.80 1.69 1.46 1.17 1.02 0.99 0.90 0.86 0.84 0.77 0.76 0.78 0.71
1.67 1.69 1.66 1.71 1.71 1.74 1.75 1.41 1.20 1.09 1.18 1.22 1.28 1.29 1.29 1.17 1.18 1.09 1.10 1.13 1.05 0.96 0.94 0.91 0.95 1.02 1.10 1.34 1.59 1.60 1.56 1.56 1.44 1.22 0.99 0.95 0.90 0.89 0.92 0.77 0.64 0.63 0.63